#timestamp,LO_Frequency,Hit,StdDev 
1648378815.8,286047002.8,N
1648378835.7,286047001.7,N
1648378855.5,286047000.0,N
1648378875.3,286046998.3,N
1648378895.2,286046998.8,N
1648378915.0,286046998.3,N
1648378915.9,286046998.3,N
1648378935.8,286046998.3,N
1648378955.6,286047000.0,N
1648378975.4,286047001.6,N
1648378995.3,286047002.1,N
1648379015.1,286047001.7,N
1648379035.8,286047004.0,N
1648379055.7,286047001.9,N
1648379075.5,286047004.1,N
1648379095.4,286047002.6,N
1648379115.2,286047004.4,N
1648379135.0,286047002.5,N
1648379135.9,286047002.5,N
1648379155.8,286047004.3,N
1648379175.6,286047003.5,N
1648379195.5,286047003.3,N
1648379215.3,286047003.7,N
1648379235.1,286047004.4,N
1648379255.9,286047002.8,N
1648379275.7,286047002.0,N
1648379295.5,286047002.5,N
1648379315.4,286047003.9,N
1648379335.2,286047001.9,N
1648379355.1,286047001.9,N
1648379356.0,286047001.9,N
1648379375.8,286047002.1,N
1648379395.6,286047002.5,N
1648379415.5,286047000.5,N
1648379435.3,286047002.4,N
1648379455.2,286047002.9,N
1648379475.9,286047001.7,N
1648379495.7,286046999.7,N
1648379515.6,286047001.0,N
1648379535.4,286047000.1,N
1648379555.2,286047001.0,N
1648379575.1,286047002.3,N
1648379576.0,286047002.3,N
1648379595.8,286047000.4,N
1648379615.7,286047001.1,N
1648379635.5,286046998.2,N
1648379655.3,286046998.9,N
1648379675.2,286046998.8,N
1648379695.0,286047000.7,N
1648379695.9,286047000.7,N
1648379715.7,286047000.8,N
1648379735.6,286047000.4,N
1648379755.4,286047000.2,N
1648379775.3,286046998.2,N
1648379795.1,286046998.1,N
1648379815.8,286047000.4,N
1648379835.7,286046998.2,N
1648379855.5,286046998.9,N
1648379875.4,286046999.3,N
1648379895.2,286046998.4,N
1648379915.0,286047000.3,N
1648379915.9,286047000.3,N
1648379935.8,286047002.0,N
1648379955.6,286047003.9,N
1648379975.5,286047006.0,Y
1648379995.3,286047003.1,P
1648380015.1,286047001.3,N
1648380035.9,286047000.7,N
1648380055.7,286046999.9,N
1648380075.5,286047002.3,N
1648380095.4,286047001.8,N
1648380115.2,286047003.2,Y
1648380135.1,286047003.8,P
1648380136.0,286047003.8,P
1648380155.8,286047002.5,N
1648380175.6,286047001.3,N
1648380195.5,286047002.1,N
1648380215.3,286047000.2,N
1648380235.1,286047000.6,N
1648380255.9,286047002.3,N
1648380275.7,286047000.7,N
1648380295.6,286047000.0,N
1648380315.4,286047002.4,N
1648380335.2,286047001.1,N
1648380355.1,286046998.7,N
1648380356.0,286046998.7,N
1648380375.8,286046997.3,N
1648380395.6,286046997.8,N
1648380415.5,286046997.8,N
1648380435.3,286046997.6,N
1648380455.2,286046995.4,N
1648380475.9,286046993.3,N
1648380495.7,286046996.1,N
1648380515.6,286046993.8,N
1648380535.4,286046995.9,N
1648380555.2,286046995.9,N
1648380575.1,286046992.1,N
1648380576.0,286046992.1,N
1648380595.8,286046993.6,N
1648380615.7,286046996.3,N
1648380635.5,286046996.2,N
1648380655.3,286046996.2,N
1648380675.2,286046996.3,N
1648380695.0,286046992.3,N
1648380695.9,286046992.3,N
1648380715.8,286046991.6,N
1648380735.6,286046990.7,N
1648380755.4,286046993.2,N
1648380775.3,286046992.0,N
1648380795.1,286046992.8,N
1648380815.8,286046992.7,N
1648380835.7,286046991.3,N
1648380855.5,286046991.6,N
1648380875.4,286046990.2,Y
1648380895.2,286046999.2,P
1648380915.0,286046996.7,N
1648380915.9,286046996.7,N
1648380935.8,286046995.1,Y
1648380955.6,286046999.4,P
1648380975.5,286046999.4,N
1648380995.3,286046998.6,N
1648381015.1,286047000.3,N
1648381035.9,286047011.9,Y
1648381055.7,286047004.4,P
1648381075.5,286047004.3,N
1648381095.4,286047004.0,N
1648381115.2,286047001.3,N
1648381135.1,286047003.5,N
1648381136.0,286047003.5,N
1648381155.8,286047001.9,N
1648381175.6,286047000.4,N
1648381195.5,286046998.2,N
1648381215.3,286046998.5,N
1648381235.1,286046999.3,N
1648381255.9,286046997.4,N
1648381275.7,286046997.8,N
1648381295.6,286046997.4,N
1648381315.4,286046997.1,N
1648381335.2,286046997.0,N
1648381355.1,286046997.9,N
1648381356.0,286046997.9,N
1648381375.8,286046997.8,N
1648381395.7,286046997.4,N
1648381415.5,286046995.4,N
1648381435.3,286046994.9,N
1648381455.2,286046997.8,N
1648381475.9,286046997.7,N
1648381495.7,286046997.9,N
1648381515.6,286046995.0,N
1648381535.4,286046997.4,N
1648381555.3,286046998.3,N
1648381575.1,286046999.2,N
1648381576.0,286046999.2,N
1648381595.8,286046996.6,N
1648381615.7,286046996.5,N
1648381635.5,286046998.6,N
1648381655.3,286046997.9,N
1648381675.2,286046996.7,N
1648381695.0,286046997.9,N
1648381695.9,286046997.9,N
1648381715.8,286046997.7,N
1648381735.6,286046997.1,N
1648381755.4,286046999.2,N
1648381775.3,286046997.2,N
1648381795.1,286046998.0,N
1648381815.9,286046996.2,Y
1648381835.7,286046997.5,P
1648381855.5,286046996.8,P
1648381875.4,286046997.4,P
1648381895.2,286046997.0,Y
1648381915.0,286047001.6,P
1648381915.9,286047001.6,N
1648381935.8,286047002.5,N
1648381955.6,286046998.1,N
1648381975.5,286047000.5,N
1648381995.3,286047000.3,N
1648382015.1,286047000.9,N
1648382035.9,286047002.7,N
1648382055.7,286047002.6,N
1648382075.5,286047002.6,N
1648382095.4,286047000.7,N
1648382115.2,286047000.4,N
1648382135.1,286046999.9,N
1648382136.0,286046999.9,N
1648382155.8,286047002.3,N
1648382175.6,286047002.6,N
1648382195.5,286047000.9,N
1648382215.3,286046998.1,N
1648382235.1,286046998.7,N
1648382255.9,286046999.0,N
1648382275.7,286046998.2,N
1648382295.6,286046999.2,N
1648382315.4,286046999.4,N
1648382335.2,286046999.4,N
1648382355.1,286046997.3,N
1648382356.0,286046997.3,N
1648382375.8,286046997.4,N
1648382395.7,286046998.5,N
